Wind from 270 at 5 knots gusting 11

Air temperature 24.4° C
Dewpoint 4.2° C

Last reported at 2014-Apr-20 10:45 UTC.
Time now 2014-Apr-20 11:37 UTC

Location: N 37°60' W 001°06'.
View on Google Maps.

See reports from other nearby stations

Tides Stations Pressure Air Temp Water Temp Dewpoint Dewpoint depression Visibility Wind Speed Wind Dir Waves Ship positions

  
sailing weather and tide predictions

DW6345 Murcia ES weather

date/time (UTC)wind fromknots sea level pressurealtimeterstation pressurevisibilityair tempwater tempwave heightnotes
2014-Apr-20 10:45 270 5 gusting 11 24.4
2014-Apr-20 10:25 270 0 gusting 6 24.4
2014-Apr-20 10:15 180 2 gusting 10 24.4
2014-Apr-20 09:35 315 2 gusting 5 23.3
2014-Apr-20 09:25 143 1 gusting 5 22.8
2014-Apr-20 09:15 315 1 gusting 8 21.7
2014-Apr-20 09:05 180 1 gusting 6 21.7
2014-Apr-20 08:55 270 2 gusting 6 21.7
2014-Apr-20 08:05 315 5 gusting 10 20.6
2014-Apr-20 07:55 315 1 gusting 10 20.6
2014-Apr-20 07:45 315 2 gusting 8 20.0
2014-Apr-20 07:35 315 3 gusting 7 20.0
2014-Apr-20 07:15 225 0 gusting 5 19.4
2014-Apr-20 07:05 270 0 gusting 4 18.9
2014-Apr-20 06:55 277 1 gusting 5 18.9
2014-Apr-20 06:45 301 2 gusting 6 18.3
2014-Apr-20 06:35 238 2 gusting 5 18.3
2014-Apr-20 06:25 225 1 gusting 4 18.3
2014-Apr-20 06:15 090 0 gusting 5 18.3
2014-Apr-20 06:05 231 1 gusting 6 17.8
2014-Apr-20 05:55 315 1 gusting 5 17.8
2014-Apr-20 05:45 270 1 gusting 2 17.8
2014-Apr-20 05:35 303 0 gusting 2 17.2
2014-Apr-20 05:25 270 1 gusting 5 17.8
2014-Apr-20 05:15 315 0 gusting 6 17.8
2014-Apr-20 05:05 315 2 gusting 5 17.2
2014-Apr-20 04:55 252 0 gusting 2 17.2
2014-Apr-20 04:45 202 0 gusting 4 17.2
2014-Apr-20 04:35 135 1 gusting 2 17.2
2014-Apr-20 04:25 135 1 gusting 2 17.2
2014-Apr-20 04:15 031 17.8
2014-Apr-20 04:05 045 2 gusting 2 18.3
2014-Apr-20 03:55 255 18.3
2014-Apr-20 03:45 270 1 gusting 5 18.3
2014-Apr-20 03:35 270 2 gusting 5 18.3
2014-Apr-20 03:25 315 2 gusting 5 18.3
2014-Apr-20 03:15 252 1 gusting 4 18.9
2014-Apr-20 03:05 270 0 gusting 2 18.9
2014-Apr-20 02:55 270 1 gusting 5 18.9
2014-Apr-20 02:45 276 4 gusting 6 18.3
2014-Apr-20 02:35 270 1 gusting 4 18.3
2014-Apr-20 02:25 180 0 gusting 5 18.9
2014-Apr-20 02:15 225 2 gusting 5 18.9
2014-Apr-20 02:05 270 18.9
2014-Apr-20 01:55 180 19.4
2014-Apr-20 01:45 315 0 gusting 1 19.4
2014-Apr-20 01:35 090 20.0
2014-Apr-20 01:25 180 0 gusting 2 20.0
2014-Apr-20 01:15 180 0 gusting 4 20.6
2014-Apr-20 01:05 225 2 gusting 4 20.6
2014-Apr-20 00:55 225 2 gusting 4 20.6
2014-Apr-20 00:45 180 0 gusting 1 20.6
2014-Apr-20 00:35 090 21.1
2014-Apr-20 00:25 315 0 gusting 2 21.1
2014-Apr-20 00:15 273 1 gusting 6 21.1
2014-Apr-20 00:05 270 2 gusting 8 21.1
2014-Apr-19 23:55 028 5 gusting 8 21.1
2014-Apr-19 23:45 270 4 gusting 11 21.1
2014-Apr-19 23:35 270 4 gusting 8 21.1
2014-Apr-19 23:25 270 4 gusting 8 21.7
2014-Apr-19 23:15 21.7
2014-Apr-19 23:05 270 2 gusting 12 21.7
2014-Apr-19 22:55 270 5 gusting 17 21.7
2014-Apr-19 22:45 312 7 gusting 17 21.7
2014-Apr-19 22:35 270 7 gusting 18 22.2
2014-Apr-19 22:25 303 8 gusting 18 22.2
2014-Apr-19 22:14 270 8 gusting 14 22.2
2014-Apr-19 22:05 270 7 gusting 13 22.8
2014-Apr-19 21:55 275 8 gusting 18 22.8
2014-Apr-19 21:45 270 6 gusting 15 22.2
2014-Apr-19 21:35 270 8 gusting 13 22.2
2014-Apr-19 21:25 298 0 gusting 6 21.7
2014-Apr-19 21:15 270 0 gusting 5 21.1
2014-Apr-19 21:05 202 2 gusting 4 21.1
2014-Apr-19 20:55 270 0 gusting 1 21.1
2014-Apr-19 20:45 055 0 gusting 2 21.7
2014-Apr-19 20:35 045 0 gusting 6 21.7
2014-Apr-19 20:25 315 5 gusting 6 21.7
2014-Apr-19 20:15 270 1 gusting 5 21.7
2014-Apr-19 20:05 270 2 gusting 5 21.7
2014-Apr-19 19:55 243 1 gusting 4 21.7
2014-Apr-19 19:45 229 2 gusting 5 22.2
2014-Apr-19 19:35 225 1 gusting 2 22.2
2014-Apr-19 19:25 270 1 gusting 5 22.2
2014-Apr-19 19:15 270 2 gusting 5 22.8
2014-Apr-19 19:05 270 0 gusting 5 23.3
2014-Apr-19 18:55 225 2 gusting 5 23.3
2014-Apr-19 18:45 225 1 gusting 6 23.9
2014-Apr-19 18:35 180 4 gusting 6 24.4
2014-Apr-19 18:25 180 2 gusting 6 24.4
2014-Apr-19 18:15 209 4 gusting 6 24.4
2014-Apr-19 18:05 135 2 gusting 11 25.0
2014-Apr-19 17:55 162 5 gusting 11 25.6
2014-Apr-19 17:45 065 1 gusting 5 25.6
2014-Apr-19 17:35 180 0 gusting 5 25.6
2014-Apr-19 17:25 180 2 gusting 5 25.6
2014-Apr-19 17:15 135 0 gusting 2 25.6
2014-Apr-19 17:05 090 0 gusting 2 25.6
2014-Apr-19 16:55 124 1 gusting 4 26.1
2014-Apr-19 16:45 045 26.1
2014-Apr-19 16:35 270 5 gusting 17 23.3
2014-Apr-19 16:25 225 26.1
2014-Apr-19 16:15 149 2 gusting 6 26.1
2014-Apr-19 16:05 225 1 gusting 8 26.7
2014-Apr-19 15:55 180 6 gusting 8 27.2
2014-Apr-19 15:45 118 27.2
2014-Apr-19 15:35 180 0 gusting 6 27.8
2014-Apr-19 15:25 120 2 gusting 5 27.8
2014-Apr-19 15:15 293 27.8
2014-Apr-19 15:05 090 27.2
2014-Apr-19 14:55 016 27.2
2014-Apr-19 14:45 277 5 gusting 11 27.8
2014-Apr-19 14:35 270 5 gusting 11 28.9
2014-Apr-19 14:25 270 5 gusting 11 28.9
2014-Apr-19 14:15 225 2 gusting 13 29.4
2014-Apr-19 14:05 225 2 gusting 11 30.0
2014-Apr-19 13:55 203 4 gusting 12 30.0
2014-Apr-19 13:45 180 5 gusting 8 30.6
2014-Apr-19 13:35 180 3 gusting 7 30.0
2014-Apr-19 13:25 30.6
2014-Apr-19 13:15 180 5 gusting 10 30.6
2014-Apr-19 13:05 225 5 gusting 8 30.6
2014-Apr-19 12:55 180 4 gusting 10 30.6
2014-Apr-19 12:45 180 3 gusting 11 30.6
2014-Apr-19 12:35 180 6 gusting 12 30.6
2014-Apr-19 12:25 144 5 gusting 12 31.1
2014-Apr-19 12:15 180 5 gusting 12 30.6
2014-Apr-19 12:05 180 4 gusting 11 30.6
2014-Apr-19 11:55 203 6 gusting 13 30.6
2014-Apr-19 11:45 180 7 gusting 13 30.6
2014-Apr-19 11:35 180 6 gusting 13 30.6
2014-Apr-19 11:25 225 6 gusting 12 30.6
2014-Apr-19 11:15 225 2 gusting 8 30.6
2014-Apr-19 11:05 135 0 gusting 5 31.1
2014-Apr-19 10:55 180 1 gusting 6 31.1
2014-Apr-19 10:45 225 4 gusting 6 30.6
2014-Apr-19 10:35 135 30.6
2014-Apr-19 10:25 270 28.3
2014-Apr-19 10:15 270 0 gusting 4 28.3
2014-Apr-19 10:05 270 2 gusting 5 27.8
2014-Apr-19 09:55 279 2 gusting 6 27.2
2014-Apr-19 09:45 270 2 gusting 6 26.7
2014-Apr-19 09:35 315 1 gusting 4 26.7
2014-Apr-19 09:25 282 0 gusting 2 26.1
2014-Apr-19 09:15 197 25.6
2014-Apr-19 09:05 225 2 gusting 6 25.0
2014-Apr-19 08:55 270 3 gusting 6 24.4
2014-Apr-19 08:45 270 2 gusting 6 23.9
2014-Apr-19 08:35 262 2 gusting 5 23.3
2014-Apr-19 08:25 225 2 gusting 5 22.8
2014-Apr-19 08:15 270 1 gusting 2 22.8
2014-Apr-19 08:05 225 0 gusting 2 22.8
2014-Apr-19 07:55 225 1 gusting 2 22.2
2014-Apr-19 07:45 281 1 gusting 5 22.2
2014-Apr-19 07:35 272 2 gusting 5 21.7
2014-Apr-19 07:25 244 1 gusting 5 21.1
2014-Apr-19 07:15 310 0 gusting 5 18.9
2014-Apr-19 07:05 270 1 gusting 4 20.0
2014-Apr-19 06:55 258 2 gusting 5 19.4
2014-Apr-19 06:45 315 1 gusting 4 18.9
2014-Apr-19 06:35 282 0 gusting 2 18.9
2014-Apr-19 06:25 240 1 gusting 2 18.3
2014-Apr-19 06:15 270 0 gusting 2 17.8
2014-Apr-19 06:05 225 0 gusting 2 17.8
2014-Apr-19 05:55 241 0 gusting 2 17.2
2014-Apr-19 05:45 270 0 gusting 2 17.2
2014-Apr-19 05:35 315 1 gusting 4 17.2
2014-Apr-19 05:25 270 2 gusting 4 17.2
2014-Apr-19 05:15 270 1 gusting 4 17.2
2014-Apr-19 05:05 315 0 gusting 4 17.2
2014-Apr-19 04:55 310 1 gusting 5 17.2
2014-Apr-19 04:45 270 1 gusting 4 17.2
2014-Apr-19 04:35 292 0 gusting 5 16.7
2014-Apr-19 04:25 270 2 gusting 6 16.7
2014-Apr-19 04:15 225 3 gusting 6 16.1
2014-Apr-19 04:05 180 5 gusting 8 16.1
2014-Apr-19 03:55 299 5 gusting 8 16.7
2014-Apr-19 03:45 195 3 gusting 6 16.7
2014-Apr-19 03:35 196 2 gusting 4 17.2
2014-Apr-19 03:25 180 1 gusting 4 17.2
2014-Apr-19 03:15 222 0 gusting 5 17.2
2014-Apr-19 03:05 270 2 gusting 5 17.2
2014-Apr-19 02:55 225 2 gusting 4 17.2
2014-Apr-19 02:45 216 0 gusting 2 17.8
2014-Apr-19 02:35 226 0 gusting 2 17.2
2014-Apr-19 02:25 263 1 gusting 4 17.8
2014-Apr-19 02:15 270 0 gusting 2 17.8
2014-Apr-19 02:05 270 1 gusting 2 17.8
2014-Apr-19 01:55 270 1 gusting 4 17.8
2014-Apr-19 01:45 288 1 gusting 5 17.8
2014-Apr-19 01:35 268 2 gusting 6 17.8
2014-Apr-19 01:25 314 3 gusting 6 17.8
2014-Apr-19 01:15 300 2 gusting 7 17.8
2014-Apr-19 01:05 278 4 gusting 6 17.8
2014-Apr-19 00:55 270 2 gusting 6 17.8
2014-Apr-19 00:45 269 2 gusting 6 17.8
2014-Apr-19 00:35 265 3 gusting 6 17.8
2014-Apr-19 00:25 237 3 gusting 7 17.8
2014-Apr-19 00:15 212 3 gusting 8 18.3
2014-Apr-19 00:05 270 2 gusting 6 18.3
2014-Apr-18 23:55 242 2 gusting 6 18.3
2014-Apr-18 23:45 268 3 gusting 6 18.9
2014-Apr-18 23:35 235 3 gusting 6 18.3
2014-Apr-18 23:25 270 4 gusting 7 18.3
2014-Apr-18 23:15 270 2 gusting 6 18.3
2014-Apr-18 23:05 225 0 gusting 5 18.9
2014-Apr-18 22:55 270 2 gusting 5 18.9
2014-Apr-18 22:45 270 1 gusting 2 18.9
2014-Apr-18 22:35 268 18.9
2014-Apr-18 22:25 270 0 gusting 2 18.9
2014-Apr-18 22:14 045 0 gusting 2 18.9
2014-Apr-18 22:05 045 0 gusting 2 18.9
2014-Apr-18 21:55 090 18.9
2014-Apr-18 21:45 315 0 gusting 1 18.9
2014-Apr-18 21:35 045 18.9
2014-Apr-18 21:25 257 18.9
2014-Apr-18 21:15 090 0 gusting 4 19.4
2014-Apr-18 21:05 090 0 gusting 4 19.4
2014-Apr-18 20:55 045 1 gusting 6 19.4
2014-Apr-18 20:45 073 2 gusting 6 20.0
2014-Apr-18 20:35 090 2 gusting 6 20.0
2014-Apr-18 20:25 090 4 gusting 6 20.6
2014-Apr-18 20:15 090 2 gusting 6 21.1
2014-Apr-18 20:05 090 4 gusting 5 21.1
2014-Apr-18 19:55 090 2 gusting 6 21.7
2014-Apr-18 19:45 075 3 gusting 6 22.2
2014-Apr-18 19:35 081 1 gusting 5 22.8
2014-Apr-18 19:25 090 2 gusting 6 22.8
2014-Apr-18 19:15 090 2 gusting 6 22.8
2014-Apr-18 19:05 180 5 gusting 5 23.3
2014-Apr-18 18:55 180 3 gusting 8 23.3
2014-Apr-18 18:45 182 6 gusting 8 23.9
2014-Apr-18 18:35 155 4 gusting 8 24.4
2014-Apr-18 18:25 180 5 gusting 7 24.4
2014-Apr-18 18:15 146 4 gusting 7 25.0
2014-Apr-18 18:05 180 4 gusting 7 25.0
2014-Apr-18 17:55 163 5 gusting 8 25.0
2014-Apr-18 17:45 180 5 gusting 10 25.6
2014-Apr-18 17:35 180 6 gusting 11 26.1
2014-Apr-18 17:25 210 6 gusting 11 26.7
2014-Apr-18 17:15 163 6 gusting 11 26.7
2014-Apr-18 17:05 135 5 gusting 8 27.2
2014-Apr-18 16:55 145 6 gusting 11 27.2
2014-Apr-18 16:45 155 4 gusting 10 27.2
2014-Apr-18 16:35 154 4 gusting 8 27.2
2014-Apr-18 16:25 180 4 gusting 8 27.2
2014-Apr-18 16:15 176 5 gusting 11 27.2
2014-Apr-18 16:05 180 4 gusting 10 27.2
2014-Apr-18 15:55 180 4 gusting 13 27.2
2014-Apr-18 15:45 180 9 gusting 17 27.2
2014-Apr-18 15:35 159 7 gusting 14 27.2
2014-Apr-18 15:25 171 9 gusting 14 27.2
2014-Apr-18 15:15 149 4 gusting 13 27.2
2014-Apr-18 15:05 180 7 gusting 13 27.2
2014-Apr-18 14:55 180 6 gusting 17 27.2
2014-Apr-18 14:45 157 11 gusting 17 27.2
2014-Apr-18 14:35 156 7 gusting 19 27.2
2014-Apr-18 14:25 180 13 gusting 19 27.8
2014-Apr-18 14:15 180 10 gusting 18 27.8
2014-Apr-18 14:05 180 10 gusting 14 27.8
2014-Apr-18 13:55 121 5 gusting 13 27.8
2014-Apr-18 13:45 180 5 gusting 13 27.8
2014-Apr-18 13:35 180 6 gusting 13 27.8
2014-Apr-18 13:25 174 6 gusting 14 27.2
2014-Apr-18 13:15 180 8 gusting 15 27.8
2014-Apr-18 13:05 180 11 gusting 18 27.8
2014-Apr-18 12:55 090 5 gusting 17 27.8
2014-Apr-18 12:45 118 5 gusting 12 27.8
2014-Apr-18 12:35 180 5 gusting 8 27.8
2014-Apr-18 12:25 208 1 gusting 11 27.2
2014-Apr-18 12:15 180 5 gusting 13 27.2
2014-Apr-18 12:05 135 4 gusting 8 27.2
2014-Apr-18 11:55 180 4 gusting 7 27.2
2014-Apr-18 11:45 115 5 gusting 6 27.2
2014-Apr-18 11:35 310 1 gusting 6 27.2
2014-Apr-18 11:25 137 0 gusting 5 26.7
2014-Apr-18 11:15 077 1 gusting 6 26.1
2014-Apr-18 11:05 090 2 gusting 6 26.1